Hourly Data Report for September 14, 2017

All times are specified in Local Standard Time (LST). Add 1 hour to adjust for Daylight Saving Time where and when it is observed.

BAS CARAQUET
NEW BRUNSWICK

47°48'08.000" N
64°50'00.000" W
5.00 m
8100467
71598
WXS

Download Data

Hourly Data (September 2017)
Hourly Data Report for September 14, 2017
Temp Definition
°C
Dew Point Temp Definition
°C
Rel Hum Definition
%
Wind Dir Definition
10's deg

Wind Spd Definition
km/h
Visibility Definition
km
Stn Press Definition
kPa
Hmdx Definition


Wind Chill Definition


Weather Definition


TIME
00:00 19.2 11.4 61 25 10   100.25     LegendNANA
01:00 19.0 11.8 63 26 10   100.28     LegendNANA
02:00 17.5 12.3 72 27 9   100.30     LegendNANA
03:00 17.4 12.5 73 26 10   100.32     LegendNANA
04:00 16.5 12.7 78 26 7   100.36     LegendNANA
05:00 15.9 13.2 84 26 7   100.41     LegendNANA
06:00 16.0 12.6 81 25 6   100.46     LegendNANA
07:00 16.4 13.1 81 25 8   100.53     LegendNANA
08:00 18.4 13.5 73 26 10   100.58     LegendNANA
09:00 18.5 13.8 74 29 16   100.64     LegendNANA
10:00 19.2 13.9 71 28 15   100.68     LegendNANA
11:00 20.5 14.1 66 28 13   100.68     LegendNANA
12:00 21.5 14.1 63 28 15   100.68 25   LegendNANA
13:00 22.4 12.3 53 29 18   100.67 25   LegendNANA
14:00 21.8 12.4 55 28 17   100.69     LegendNANA
15:00 22.3 12.1 53 28 14   100.71 25   LegendNANA
16:00 21.3 10.9 52 28 13   100.71     LegendNANA
17:00 19.6 11.9 61 28 13   100.76     LegendNANA
18:00 18.0 12.0 68 26 6   100.85     LegendNANA
19:00 14.3 12.4 88 36 1   100.97     LegendNANA
20:00 12.9 12.0 94 7 7   101.09     LegendNANA
21:00 12.4 11.0 91 15 5   101.15     LegendNANA
22:00 10.6 10.0 96 14 3   101.24     LegendNANA
23:00 9.2 8.7 97 16 4   101.30     LegendNANA

Notes on Data Quality.

Legend

  • E = Estimated
  • M = Missing
  • NA = Not Available
  • ‡ = Partner data that is not subject to review by the National Climate Archives
Date modified: